Tracking 23441 objects as of 15-Jun-2021
HD Live streaming from Space Station
objects crossing your sky now

IRIDIUM 160

Track IRIDIUM 160 now!
10-day predictions
IRIDIUM 160 is classified as:


NORAD ID: 43569
Int'l Code: 2018-061A
Perigee: 783.2 km
Apogee: 786.5 km
Inclination: 86.4 °
Period: 100.4 minutes
Semi major axis: 7155 km
RCS: Unknown
Launch date: July 25, 2018
Source: United States (US)
Launch site: AIR FORCE WESTERN TEST RANGE (AFWTR)
aabbcc
Your satellite tracking list
Your tracking list is empty




NASA's NSSDC Master Catalog

Two Line Element Set (TLE):
1 43569U 18061A   21165.91586541  .00000095  00000-0  26998-4 0  9999
2 43569  86.3967 100.8326 0002309  77.4734 282.6720 14.34218901151326
Source of the keplerian elements: AFSPC